sat.trackr.live / text

‹ back to catalog

INTELSAT 10-02

NORAD 28358 · 2004-022A

PAYLOAD ACTIVE UNKNOWN

§ Identity

Operator
Country
ITSO
Launch date
2004-06-16
Launch site
TYMSC
Launch vehicle
Mass (kg)
RCS (m²)
21.20

Purposes: comms

External: N2YO · Heavens-Above · Gunter

§ Orbital elements

Epoch: 2026-09-19T15:15:23.684256Z

Period
1,436.10 min
Inclination
0.0353°
Eccentricity
0.0000096
Mean motion
1.00271743 rev/d
Perigee alt
35,786.2 km
Apogee alt
35,787.0 km
Semi-major
42,164.7 km
B*
0.0000e+0
RAAN
257.6156°
Arg perigee
220.8627°
Mean anomaly
107.9179°
Rev number
8,150

§ Raw data

INTELSAT 10-021 28358U 04022A   26262.63569079 -.00000015  00000+0  00000+0 0  99922 28358   0.0353 257.6156 0000096 220.8627 107.9179  1.00271743 81506

JSON: /api/v1/satellites/28358 · /tle

For live sub-satellite position, see the globe view (requires WebGL).

§ Visibility from observer

Set your observer location to see the next 7 days of passes ≥ 10°. The values pass through the URL so the page stays shareable.

No JS? Fill the form by hand. The geolocation button needs JavaScript.